Sanders, Before Seed, Beyond Harvest
OptiGro Location.

Weather

  • Currently

    Reported at Greenville, Greenville Municipal Airport, MS
    12:53 PM CST WED SEP 20 2017
  • 90°F32°C
  • Partly Cloudy
    Partly Cloudy
  • Feels Like:95°F35°CDew Point:70°F21°CHumidity:52% Winds:SW 9 mph 14 kph
    Pressure:29.97 in1015 hPaVisibility:10.00 miles16090.00 meters
Time Weather Temp Dew Point
Humidity Winds Visibility Pressure Precipitation
1 hr 24 hr
Wednesday, September 20
14:35 14:35 Partly Cloudy Partly Cloudy 90°F32°C 72°F22°C 55% S 8 mphS 13 kph 10.0 miles16.1 km 29.97 in1015 hPa 0.00 in0.00 mm --
14:15 14:15 Sunny Sunny 90°F32°C 73°F22°C 57% S 9 mphS 15 kph 10.0 miles16.1 km 29.97 in1015 hPa 0.00 in0.00 mm --
13:55 13:55 Partly Cloudy Partly Cloudy 88°F31°C 71°F22°C 57% SSW 10 mphSSW 17 kph 10.0 miles16.1 km 29.97 in1015 hPa 0.00 in0.00 mm --
13:35 13:35 Partly Cloudy Partly Cloudy 90°F32°C 69°F20°C 50% SW 15 mphSW 24 kph 10.0 miles16.1 km 29.97 in1015 hPa 0.00 in0.00 mm --
13:15 13:15 Mostly Cloudy Mostly Cloudy 90°F32°C 72°F22°C 55% S 10 mphS 17 kph 10.0 miles16.1 km 29.97 in1015 hPa 0.00 in0.00 mm --
12:55 12:55 Mostly Cloudy Mostly Cloudy 90°F32°C 72°F22°C 54% SSW 8 mphSSW 13 kph 10.0 miles16.1 km 30 in1016 hPa 0.00 in0.00 mm --
12:35 12:35 Mostly Cloudy Mostly Cloudy 89°F32°C 72°F22°C 57% SSW 10 mphSSW 17 kph 10.0 miles16.1 km 30 in1016 hPa 0.00 in0.00 mm --
12:15 12:15 Partly Cloudy Partly Cloudy 88°F31°C 72°F22°C 58% SW 9 mphSW 15 kph 10.0 miles16.1 km 30 in1016 hPa 0.00 in0.00 mm --
11:55 11:55 Partly Cloudy Partly Cloudy 89°F32°C 72°F22°C 58% SSW 12 mphSSW 19 kph 10.0 miles16.1 km 30 in1016 hPa 0.00 in0.00 mm --
11:35 11:35 Partly Cloudy Partly Cloudy 87°F31°C 73°F23°C 63% SW 7 mphSW 11 kph 10.0 miles16.1 km 30 in1016 hPa 0.00 in0.00 mm --
11:15 11:15 Sunny Sunny 86°F30°C 74°F23°C 67% SW 7 mphSW 11 kph 10.0 miles16.1 km 30 in1016 hPa 0.00 in0.00 mm --
10:55 10:55 Sunny Sunny 86°F30°C 73°F23°C 66% WSW 8 mphWSW 13 kph 10.0 miles16.1 km 30 in1016 hPa 0.00 in0.00 mm --
10:35 10:35 Sunny Sunny 86°F30°C 74°F23°C 67% SW 8 mphSW 13 kph 10.0 miles16.1 km 30 in1016 hPa 0.00 in0.00 mm --
10:15 10:15 Sunny Sunny 85°F29°C 74°F23°C 69% SW 10 mphSW 17 kph 10.0 miles16.1 km 30 in1016 hPa 0.00 in0.00 mm --
09:55 09:55 Sunny Sunny 84°F29°C 76°F24°C 75% WSW 8 mphWSW 13 kph 10.0 miles16.1 km 30 in1016 hPa 0.00 in0.00 mm --
09:35 09:35 Sunny Sunny 84°F29°C 76°F25°C 79% WSW 8 mphWSW 13 kph 10.0 miles16.1 km 30 in1016 hPa 0.00 in0.00 mm --
09:15 09:15 Sunny Sunny 82°F28°C 78°F25°C 87% SW 8 mphSW 13 kph 10.0 miles16.1 km 30 in1016 hPa 0.00 in0.00 mm --
08:55 08:55 Sunny Sunny 80°F27°C 78°F26°C 95% SW 7 mphSW 11 kph 10.0 miles16.1 km 30 in1016 hPa 0.00 in0.00 mm --
08:35 08:35 Sunny Sunny 79°F26°C 78°F26°C 99% SSW 6 mphSSW 9 kph 10.0 miles16.1 km 30 in1016 hPa 0.00 in0.00 mm --
08:15 08:15 Sunny Sunny 78°F25°C 78°F25°C 100% SSW 6 mphSSW 9 kph 10.0 miles16.1 km 30 in1016 hPa 0.00 in0.00 mm --
07:55 07:55 Sunny Sunny 76°F24°C 76°F24°C 100% SSW 6 mphSSW 9 kph 10.0 miles16.1 km 29.97 in1015 hPa 0.00 in0.00 mm --
07:35 07:35 Sunny Sunny 75°F24°C 75°F24°C 100% S 5 mphS 7 kph 10.0 miles16.1 km 29.97 in1015 hPa 0.00 in0.00 mm --
07:15 07:15 Sunny Sunny 74°F23°C 74°F23°C 100% SSW 3 mphSSW 6 kph 7.0 miles11.3 km 29.97 in1015 hPa 0.00 in0.00 mm --
06:55 06:55 Sunny Sunny 73°F23°C 73°F23°C 100% S 5 mphS 7 kph 7.0 miles11.3 km 29.97 in1015 hPa 0.00 in0.00 mm --
06:35 06:35 Clear Clear 73°F23°C 73°F23°C 100% S 6 mphS 9 kph 10.0 miles16.1 km 29.94 in1014 hPa 0.00 in0.00 mm --
06:15 06:15 Clear Clear 73°F23°C 73°F23°C 100% S 6 mphS 9 kph 10.0 miles16.1 km 29.94 in1014 hPa 0.00 in0.00 mm --
05:55 05:55 Clear Clear 74°F23°C 74°F23°C 100% S 6 mphS 9 kph 10.0 miles16.1 km 29.94 in1014 hPa 0.00 in0.00 mm --
05:35 05:35 Clear Clear 74°F23°C 74°F23°C 100% S 6 mphS 9 kph 10.0 miles16.1 km 29.94 in1014 hPa 0.00 in0.00 mm --
05:15 05:15 Clear Clear 74°F23°C 74°F23°C 100% S 6 mphS 9 kph 10.0 miles16.1 km 29.94 in1014 hPa 0.00 in0.00 mm --
04:55 04:55 Clear Clear 74°F23°C 74°F23°C 100% S 6 mphS 9 kph 10.0 miles16.1 km 29.94 in1014 hPa 0.00 in0.00 mm --
04:35 04:35 Clear Clear 74°F23°C 74°F23°C 100% S 5 mphS 7 kph 10.0 miles16.1 km 29.91 in1013 hPa 0.00 in0.00 mm --
04:15 04:15 Clear Clear 74°F23°C 74°F23°C 100% S 5 mphS 7 kph 10.0 miles16.1 km 29.91 in1013 hPa 0.00 in0.00 mm --
03:55 03:55 Clear Clear 74°F24°C 74°F24°C 100% S 5 mphS 7 kph 10.0 miles16.1 km 29.91 in1013 hPa 0.00 in0.00 mm --
03:35 03:35 Clear Clear 74°F24°C 74°F24°C 100% SSW 5 mphSSW 7 kph 10.0 miles16.1 km 29.91 in1013 hPa 0.00 in0.00 mm --
03:15 03:15 Clear Clear 74°F24°C 74°F24°C 100% S 5 mphS 7 kph 10.0 miles16.1 km 29.94 in1014 hPa 0.00 in0.00 mm --
02:55 02:55 Clear Clear 74°F24°C 74°F24°C 100% S 6 mphS 9 kph 10.0 miles16.1 km 29.94 in1014 hPa 0.00 in0.00 mm --
02:35 02:35 Clear Clear 75°F24°C 75°F24°C 100% S 5 mphS 7 kph 10.0 miles16.1 km 29.94 in1014 hPa 0.00 in0.00 mm --
02:15 02:15 Clear Clear 75°F24°C 75°F24°C 100% S 6 mphS 9 kph 10.0 miles16.1 km 29.94 in1014 hPa 0.00 in0.00 mm --
01:55 01:55 Clear Clear 75°F24°C 75°F24°C 100% S 6 mphS 9 kph 10.0 miles16.1 km 29.94 in1014 hPa 0.00 in0.00 mm --
01:35 01:35 Clear Clear 75°F24°C 75°F24°C 100% S 6 mphS 9 kph 10.0 miles16.1 km 29.94 in1014 hPa 0.00 in0.00 mm --
01:15 01:15 Clear Clear 75°F24°C 75°F24°C 100% S 6 mphS 9 kph 10.0 miles16.1 km 29.91 in1013 hPa 0.00 in0.00 mm --
00:55 00:55 Clear Clear 76°F24°C 76°F24°C 100% S 5 mphS 7 kph 10.0 miles16.1 km 29.91 in1013 hPa 0.00 in0.00 mm --
00:35 00:35 Clear Clear 76°F25°C 76°F25°C 100% S 6 mphS 9 kph 10.0 miles16.1 km 29.94 in1014 hPa 0.00 in0.00 mm --
00:15 00:15 Clear Clear 77°F25°C 77°F25°C 100% S 5 mphS 7 kph 10.0 miles16.1 km 29.94 in1014 hPa 0.00 in0.00 mm --